Time,TemperatureF,DewpointF,PressureIn,WindDirection,WindDirectionDegrees,WindSpeedMPH,WindSpeedGustMPH,Humidity,HourlyPrecipIn,Conditions,Clouds,dailyrainin,SolarRadiationWatts/m^2,SoftwareType,DateUTC
2013-10-29 00:00:00,36.0,34.0,-100.00,NE,45,2.0,-999.0,91,-99.99,,,-99.99,0.000000,,2013-10-29 04:00:00,
2013-10-29 00:44:00,36.0,34.0,-100.00,NE,45,2.0,-999.0,91,-99.99,,,-99.99,0.000000,,2013-10-29 04:44:00,
2013-10-29 00:57:00,36.0,34.0,-100.00,NE,45,2.0,-999.0,91,-99.99,,,-99.99,0.000000,,2013-10-29 04:57:00,
2013-10-29 02:00:00,34.0,32.0,-100.00,NE,45,1.0,-999.0,95,-99.99,,,-99.99,0.000000,,2013-10-29 06:00:00,
2013-10-29 02:44:00,34.0,32.0,-100.00,NE,45,1.0,-999.0,95,-99.99,,,-99.99,0.000000,,2013-10-29 06:44:00,
2013-10-29 02:53:00,34.0,32.0,-100.00,NE,45,1.0,-999.0,95,-99.99,,,-99.99,0.000000,,2013-10-29 06:53:00,
2013-10-29 03:00:00,33.0,33.0,-100.00,NE,45,1.0,-999.0,98,-99.99,,,-99.99,0.000000,,2013-10-29 07:00:00,
2013-10-29 03:44:00,33.0,33.0,-100.00,NE,45,1.0,-999.0,98,-99.99,,,-99.99,0.000000,,2013-10-29 07:44:00,
2013-10-29 03:55:00,33.0,33.0,-100.00,NE,45,1.0,-999.0,98,-99.99,,,-99.99,0.000000,,2013-10-29 07:55:00,
2013-10-29 04:00:00,33.0,33.0,-100.00,NE,45,1.0,-999.0,98,-99.99,,,-99.99,0.000000,,2013-10-29 08:00:00,
2013-10-29 04:42:00,33.0,33.0,-100.00,NE,45,1.0,-999.0,98,-99.99,,,-99.99,0.000000,,2013-10-29 08:42:00,
2013-10-29 04:52:00,33.0,33.0,-100.00,NE,45,1.0,-999.0,98,-99.99,,,-99.99,0.000000,,2013-10-29 08:52:00,
2013-10-29 05:00:00,33.0,32.0,-100.00,NE,45,1.0,-999.0,99,-99.99,,,-99.99,0.000000,,2013-10-29 09:00:00,
2013-10-29 05:43:00,33.0,32.0,-100.00,NE,45,1.0,-999.0,99,-99.99,,,-99.99,0.000000,,2013-10-29 09:43:00,
2013-10-29 05:53:00,33.0,32.0,-100.00,NE,45,1.0,-999.0,99,-99.99,,,-99.99,0.000000,,2013-10-29 09:53:00,
2013-10-29 07:00:00,33.0,32.0,-100.00,ENE,67,1.0,-999.0,96,-99.99,,,-99.99,0.000000,,2013-10-29 11:00:00,
2013-10-29 07:42:00,33.0,32.0,-100.00,ENE,67,1.0,-999.0,96,-99.99,,,-99.99,0.000000,,2013-10-29 11:42:00,
2013-10-29 07:52:00,33.0,32.0,-100.00,ENE,67,1.0,-999.0,96,-99.99,,,-99.99,0.000000,,2013-10-29 11:52:00,
2013-10-29 08:00:00,32.0,31.0,-100.00,ENE,67,1.0,-999.0,97,-99.99,,,-99.99,0.000000,,2013-10-29 12:00:00,
2013-10-29 08:52:00,32.0,31.0,-100.00,ENE,67,1.0,-999.0,97,-99.99,,,-99.99,0.000000,,2013-10-29 12:52:00,
2013-10-29 09:00:00,31.0,31.0,-100.00,East,90,0.0,-999.0,99,-99.99,,,-99.99,27.840000,,2013-10-29 13:00:00,
2013-10-29 09:42:00,31.0,31.0,-100.00,East,90,0.0,-999.0,99,-99.99,,,-99.99,27.840000,,2013-10-29 13:42:00,
2013-10-29 09:52:00,31.0,31.0,-100.00,East,90,0.0,-999.0,99,-99.99,,,-99.99,27.840000,,2013-10-29 13:52:00,
2013-10-29 11:00:00,43.0,36.0,-100.00,ESE,112,5.0,-999.0,76,-99.99,,,-99.99,258.679993,,2013-10-29 15:00:00,
2013-10-29 11:44:00,43.0,36.0,-100.00,ESE,112,5.0,-999.0,76,-99.99,,,-99.99,258.679993,,2013-10-29 15:44:00,
2013-10-29 11:54:00,43.0,36.0,-100.00,ESE,112,5.0,-999.0,76,-99.99,,,-99.99,258.679993,,2013-10-29 15:54:00,
2013-10-29 12:00:00,46.0,38.0,-100.00,ESE,112,6.0,-999.0,71,-99.99,,,-99.99,346.839996,,2013-10-29 16:00:00,
2013-10-29 12:43:00,46.0,38.0,-100.00,ESE,112,6.0,-999.0,71,-99.99,,,-99.99,346.839996,,2013-10-29 16:43:00,
2013-10-29 12:53:00,46.0,38.0,-100.00,ESE,112,6.0,-999.0,71,-99.99,,,-99.99,346.839996,,2013-10-29 16:53:00,
2013-10-29 14:00:00,52.0,40.0,-100.00,ESE,112,5.0,-999.0,63,-99.99,,,-99.99,329.440002,,2013-10-29 18:00:00,
2013-10-29 14:42:00,52.0,40.0,-100.00,ESE,112,5.0,-999.0,63,-99.99,,,-99.99,329.440002,,2013-10-29 18:42:00,
2013-10-29 14:52:00,52.0,40.0,-100.00,ESE,112,5.0,-999.0,63,-99.99,,,-99.99,329.440002,,2013-10-29 18:52:00,
2013-10-29 15:00:00,53.0,40.0,-100.00,SE,135,6.0,-999.0,60,-99.99,,,-99.99,285.359985,,2013-10-29 19:00:00,
2013-10-29 15:42:00,53.0,40.0,-100.00,SE,135,6.0,-999.0,60,-99.99,,,-99.99,285.359985,,2013-10-29 19:42:00,
2013-10-29 15:53:00,53.0,40.0,-100.00,SE,135,6.0,-999.0,60,-99.99,,,-99.99,285.359985,,2013-10-29 19:53:00,
2013-10-29 16:00:00,54.0,40.0,-100.00,SE,135,5.0,-999.0,58,-99.99,,,-99.99,235.479996,,2013-10-29 20:00:00,
2013-10-29 16:43:00,54.0,40.0,-100.00,SE,135,5.0,-999.0,58,-99.99,,,-99.99,235.479996,,2013-10-29 20:43:00,
2013-10-29 16:52:00,54.0,40.0,-100.00,SE,135,5.0,-999.0,58,-99.99,,,-99.99,235.479996,,2013-10-29 20:52:00,
2013-10-29 17:00:00,54.0,40.0,-100.00,SE,135,5.0,-999.0,57,-99.99,,,-99.99,190.240005,,2013-10-29 21:00:00,
2013-10-29 17:43:00,54.0,40.0,-100.00,SE,135,5.0,-999.0,57,-99.99,,,-99.99,190.240005,,2013-10-29 21:43:00,
2013-10-29 17:54:00,54.0,40.0,-100.00,SE,135,5.0,-999.0,57,-99.99,,,-99.99,190.240005,,2013-10-29 21:54:00,
2013-10-29 19:00:00,52.0,39.0,-100.00,ESE,112,3.0,-999.0,60,-99.99,,,-99.99,10.440000,,2013-10-29 23:00:00,
2013-10-29 19:43:00,52.0,39.0,-100.00,ESE,112,3.0,-999.0,60,-99.99,,,-99.99,10.440000,,2013-10-29 23:43:00,
2013-10-29 19:53:00,52.0,39.0,-100.00,ESE,112,3.0,-999.0,60,-99.99,,,-99.99,10.440000,,2013-10-29 23:53:00,
2013-10-29 21:00:00,44.0,38.0,-100.00,ESE,112,1.0,-999.0,80,-99.99,,,-99.99,0.000000,,2013-10-30 01:00:00,
2013-10-29 21:42:00,44.0,38.0,-100.00,ESE,112,1.0,-999.0,80,-99.99,,,-99.99,0.000000,,2013-10-30 01:42:00,
2013-10-29 21:52:00,44.0,38.0,-100.00,ESE,112,1.0,-999.0,80,-99.99,,,-99.99,0.000000,,2013-10-30 01:52:00,
2013-10-29 23:00:00,39.0,38.0,-100.00,ESE,112,1.0,-999.0,94,-99.99,,,-99.99,0.000000,,2013-10-30 03:00:00,
2013-10-29 23:44:00,39.0,38.0,-100.00,ESE,112,1.0,-999.0,94,-99.99,,,-99.99,0.000000,,2013-10-30 03:44:00,
2013-10-29 23:54:00,39.0,38.0,-100.00,ESE,112,1.0,-999.0,94,-99.99,,,-99.99,0.000000,,2013-10-30 03:54:00,